Location: Huntsville
(41.2590°N, 111.7678°W)
Time: 06:20:44
(UTC+00:00)

Vanguard 3 - Pass Details

Date: 17 June 2021
Orbit: 508 x 3261 km, 33.4° (Epoch: 29 July)

Event Time Altitude Azimuth Distance (km) Brightness Sun altitude
Rises 17:50:03 0° 258° (WSW) 2,946 9.8 62.8°
Reaches altitude 10° 17:52:06 10° 250° (WSW) 2,214 9.4 63.1°
Maximum altitude 17:56:51 40° 181° (S) 1,401 9.3 63.9°
Drops below altitude 10° 18:04:35 10° 116° (ESE) 3,609 11.0 65.0°
Sets 18:08:50 0° 110° (ESE) 5,083 11.5 65.6°
